Zurück zum Katalog

STARLINK-36471

AktivKommunikationVLEO
NORAD 67324·PAYLOAD·🇺🇸 United States

Gestartet Jan 4, 2026 von Cape Canaveral Space Force Station

Loading…

Nächste Überflüge (nächste 24 Stunden)

TLE

AktuellSource: CelesTrak SupGP

Epoche: Sep 14, 2026, 15:03 UTC

1 67324C 26002V   26257.62756944  .00017363  00000+0  62911-3 0  2575
2 67324  43.0034 338.0735 0001301 276.9864 185.8180 15.27557671    12

Verfolge STARLINK-36471 in Echtzeit mit AllMySat

Download on the App Store